Time,TemperatureF,DewpointF,PressureIn,WindDirection,WindDirectionDegrees,WindSpeedMPH,WindSpeedGustMPH,Humidity,HourlyPrecipIn,Conditions,Clouds,dailyrainin,SoftwareType,DateUTC
2013-02-20 00:05:00,43.2,42.0,29.57,WNW,302,0.0,3.0,96,0.00,,,0.74,weatherlink.com 1.10,2013-02-20 05:05:00,
2013-02-20 00:20:00,43.0,42.0,29.57,WNW,283,0.0,3.0,96,0.00,,,0.74,weatherlink.com 1.10,2013-02-20 05:20:00,
2013-02-20 00:35:00,42.8,42.0,29.55,West,275,0.0,2.0,96,0.00,,,0.00,weatherlink.com 1.10,2013-02-20 05:35:00,
2013-02-20 00:50:00,42.6,42.0,29.55,West,281,0.0,2.0,96,0.00,,,0.00,weatherlink.com 1.10,2013-02-20 05:50:00,
2013-02-20 01:05:00,42.3,41.0,29.55,West,281,0.0,2.0,96,0.00,,,0.00,weatherlink.com 1.10,2013-02-20 06:05:00,
2013-02-20 01:20:00,42.0,41.0,29.55,West,281,0.0,2.0,96,0.00,,,0.00,weatherlink.com 1.10,2013-02-20 06:20:00,
2013-02-20 01:35:00,41.6,41.0,29.56,WNW,288,1.0,3.0,96,0.00,,,0.00,weatherlink.com 1.10,2013-02-20 06:35:00,
2013-02-20 01:51:00,41.6,41.0,29.56,West,273,0.0,7.0,96,0.00,,,0.00,weatherlink.com 1.10,2013-02-20 06:51:00,
2013-02-20 02:06:00,41.4,40.0,29.56,West,259,1.0,8.0,95,0.00,,,0.00,weatherlink.com 1.10,2013-02-20 07:06:00,
2013-02-20 02:20:00,41.1,40.0,29.55,West,263,0.0,9.0,95,0.00,,,0.00,weatherlink.com 1.10,2013-02-20 07:20:00,
2013-02-20 02:36:00,40.4,39.0,29.55,West,276,0.0,4.0,94,0.00,,,0.00,weatherlink.com 1.10,2013-02-20 07:36:00,
2013-02-20 02:50:00,40.0,39.0,29.55,WSW,254,0.0,7.0,94,0.00,,,0.00,weatherlink.com 1.10,2013-02-20 07:50:00,
2013-02-20 03:05:00,39.2,37.0,29.56,West,279,3.0,8.0,92,0.00,,,0.00,weatherlink.com 1.10,2013-02-20 08:05:00,
2013-02-20 03:21:00,38.7,37.0,29.55,West,267,0.0,8.0,92,0.00,,,0.00,weatherlink.com 1.10,2013-02-20 08:21:00,
2013-02-20 03:36:00,38.4,36.0,29.55,WSW,252,0.0,8.0,91,0.00,,,0.00,weatherlink.com 1.10,2013-02-20 08:36:00,
2013-02-20 03:51:00,38.1,36.0,29.56,WSW,252,2.0,7.0,91,0.00,,,0.00,weatherlink.com 1.10,2013-02-20 08:51:00,
2013-02-20 04:06:00,37.7,35.0,29.56,WSW,243,1.0,9.0,91,0.00,,,0.00,weatherlink.com 1.10,2013-02-20 09:06:00,
2013-02-20 04:21:00,37.7,35.0,29.56,SW,232,3.0,7.0,90,0.00,,,0.00,weatherlink.com 1.10,2013-02-20 09:21:00,
2013-02-20 04:36:00,37.5,35.0,29.56,West,269,7.0,11.0,89,0.00,,,0.00,weatherlink.com 1.10,2013-02-20 09:36:00,
2013-02-20 04:51:00,37.1,33.0,29.57,West,281,0.0,9.0,86,0.00,,,0.00,weatherlink.com 1.10,2013-02-20 09:51:00,
2013-02-20 05:06:00,36.3,32.0,29.57,WNW,294,0.0,7.0,83,0.00,,,0.00,weatherlink.com 1.10,2013-02-20 10:06:00,
2013-02-20 05:21:00,35.8,31.0,29.58,NW,319,1.0,8.0,83,0.00,,,0.00,weatherlink.com 1.10,2013-02-20 10:21:00,
2013-02-20 05:36:00,35.2,30.0,29.59,NW,321,3.0,13.0,81,0.00,,,0.00,weatherlink.com 1.10,2013-02-20 10:36:00,
2013-02-20 05:51:00,34.5,30.0,29.59,WNW,286,1.0,7.0,82,0.00,,,0.00,weatherlink.com 1.10,2013-02-20 10:51:00,
2013-02-20 06:06:00,34.2,29.0,29.59,NNW,333,4.0,5.0,81,0.00,,,0.00,weatherlink.com 1.10,2013-02-20 11:06:00,
2013-02-20 06:21:00,34.1,29.0,29.60,NW,320,0.0,6.0,80,0.00,,,0.00,weatherlink.com 1.10,2013-02-20 11:21:00,
2013-02-20 06:36:00,34.0,28.0,29.61,NW,319,1.0,10.0,79,0.00,,,0.00,weatherlink.com 1.10,2013-02-20 11:36:00,
2013-02-20 06:51:00,34.0,28.0,29.62,WNW,298,2.0,10.0,77,0.00,,,0.00,weatherlink.com 1.10,2013-02-20 11:51:00,
2013-02-20 07:06:00,33.9,27.0,29.63,WNW,285,1.0,8.0,77,0.00,,,0.00,weatherlink.com 1.10,2013-02-20 12:06:00,
2013-02-20 07:21:00,33.6,27.0,29.63,NW,305,2.0,9.0,78,0.00,,,0.00,weatherlink.com 1.10,2013-02-20 12:21:00,
2013-02-20 07:36:00,33.5,26.0,29.63,WSW,251,0.0,14.0,73,0.00,,,0.00,weatherlink.com 1.10,2013-02-20 12:36:00,
2013-02-20 07:52:00,33.7,25.0,29.64,West,277,3.0,12.0,69,0.00,,,0.00,weatherlink.com 1.10,2013-02-20 12:52:00,
2013-02-20 08:07:00,33.5,23.0,29.65,West,274,2.0,12.0,66,0.00,,,0.00,weatherlink.com 1.10,2013-02-20 13:07:00,
2013-02-20 08:22:00,33.3,22.0,29.66,West,281,4.0,14.0,63,0.00,,,0.00,weatherlink.com 1.10,2013-02-20 13:22:00,
2013-02-20 08:37:00,33.3,22.0,29.66,West,277,1.0,12.0,64,0.00,,,0.00,weatherlink.com 1.10,2013-02-20 13:37:00,
2013-02-20 08:51:00,33.2,21.0,29.67,WNW,302,2.0,10.0,62,0.00,,,0.00,weatherlink.com 1.10,2013-02-20 13:51:00,
2013-02-20 09:06:00,33.2,21.0,29.67,WNW,293,2.0,11.0,62,0.00,,,0.00,weatherlink.com 1.10,2013-02-20 14:06:00,
2013-02-20 09:21:00,33.4,21.0,29.67,West,267,4.0,18.0,60,0.00,,,0.00,weatherlink.com 1.10,2013-02-20 14:21:00,
2013-02-20 09:37:00,34.0,21.0,29.67,West,269,10.0,15.0,60,0.00,,,0.00,weatherlink.com 1.10,2013-02-20 14:37:00,
2013-02-20 09:52:00,34.8,20.0,29.67,WSW,256,5.0,12.0,56,0.00,,,0.00,weatherlink.com 1.10,2013-02-20 14:52:00,
2013-02-20 10:07:00,35.3,21.0,29.67,WNW,298,0.0,12.0,56,0.00,,,0.00,weatherlink.com 1.10,2013-02-20 15:07:00,
2013-02-20 10:22:00,35.2,20.0,29.67,West,264,1.0,19.0,54,0.00,,,0.00,weatherlink.com 1.10,2013-02-20 15:22:00,
2013-02-20 10:37:00,35.5,20.0,29.66,SW,224,4.0,12.0,53,0.00,,,0.00,weatherlink.com 1.10,2013-02-20 15:37:00,
2013-02-20 11:07:00,36.2,19.0,29.66,SW,229,9.0,14.0,51,0.00,,,0.00,weatherlink.com 1.10,2013-02-20 16:07:00,
2013-02-20 11:22:00,35.9,19.0,29.66,SW,230,4.0,16.0,50,0.00,,,0.00,weatherlink.com 1.10,2013-02-20 16:22:00,
2013-02-20 11:37:00,36.1,18.0,29.66,West,279,6.0,19.0,48,0.00,,,0.00,weatherlink.com 1.10,2013-02-20 16:37:00,
2013-02-20 11:52:00,36.2,18.0,29.65,WNW,301,5.0,17.0,48,0.00,,,0.00,weatherlink.com 1.10,2013-02-20 16:52:00,
2013-02-20 12:07:00,37.5,19.0,29.65,West,279,4.0,11.0,48,0.00,,,0.00,weatherlink.com 1.10,2013-02-20 17:07:00,
2013-02-20 12:22:00,36.8,18.0,29.64,West,260,4.0,14.0,47,0.00,,,0.00,weatherlink.com 1.10,2013-02-20 17:22:00,
2013-02-20 12:37:00,36.1,16.0,29.64,North,2,4.0,15.0,45,0.00,,,0.00,weatherlink.com 1.10,2013-02-20 17:37:00,
2013-02-20 12:52:00,36.8,18.0,29.64,WSW,252,5.0,18.0,47,0.00,,,0.00,weatherlink.com 1.10,2013-02-20 17:52:00,
2013-02-20 13:07:00,36.7,17.0,29.64,West,272,2.0,21.0,44,0.00,,,0.00,weatherlink.com 1.10,2013-02-20 18:07:00,
2013-02-20 13:22:00,35.0,16.0,29.64,West,275,12.0,19.0,46,0.00,,,0.00,weatherlink.com 1.10,2013-02-20 18:22:00,
2013-02-20 13:37:00,35.5,17.0,29.63,WSW,251,2.0,11.0,47,0.00,,,0.00,weatherlink.com 1.10,2013-02-20 18:37:00,
2013-02-20 13:52:00,35.9,15.0,29.64,ENE,72,9.0,14.0,43,0.00,,,0.00,weatherlink.com 1.10,2013-02-20 18:52:00,
2013-02-20 14:07:00,36.9,16.0,29.63,NNW,328,1.0,12.0,43,0.00,,,0.00,weatherlink.com 1.10,2013-02-20 19:07:00,
2013-02-20 14:22:00,35.9,16.0,29.64,WNW,288,3.0,15.0,45,0.00,,,0.00,weatherlink.com 1.10,2013-02-20 19:22:00,
2013-02-20 14:37:00,35.2,15.0,29.64,WNW,286,6.0,12.0,44,0.00,,,0.00,weatherlink.com 1.10,2013-02-20 19:37:00,
2013-02-20 14:52:00,34.4,14.0,29.64,WSW,241,5.0,11.0,44,0.00,,,0.00,weatherlink.com 1.10,2013-02-20 19:52:00,
2013-02-20 15:07:00,34.2,14.0,29.64,WNW,290,4.0,16.0,44,0.00,,,0.00,weatherlink.com 1.10,2013-02-20 20:07:00,
2013-02-20 15:22:00,34.6,15.0,29.65,WNW,283,1.0,17.0,44,0.00,,,0.00,weatherlink.com 1.10,2013-02-20 20:22:00,
2013-02-20 15:37:00,34.3,14.0,29.65,West,272,5.0,14.0,44,0.00,,,0.00,weatherlink.com 1.10,2013-02-20 20:37:00,
2013-02-20 15:52:00,33.5,14.0,29.66,NNW,335,4.0,13.0,44,0.00,,,0.00,weatherlink.com 1.10,2013-02-20 20:52:00,
2013-02-20 16:07:00,32.9,13.0,29.67,West,274,3.0,12.0,44,0.00,,,0.00,weatherlink.com 1.10,2013-02-20 21:07:00,
2013-02-20 16:22:00,32.4,14.0,29.67,WNW,299,1.0,12.0,46,0.00,,,0.00,weatherlink.com 1.10,2013-02-20 21:22:00,
2013-02-20 16:37:00,32.2,14.0,29.67,WNW,284,3.0,11.0,47,0.00,,,0.00,weatherlink.com 1.10,2013-02-20 21:37:00,
2013-02-20 16:52:00,31.5,14.0,29.68,West,265,10.0,15.0,48,0.00,,,0.00,weatherlink.com 1.10,2013-02-20 21:52:00,
2013-02-20 17:07:00,31.1,13.0,29.68,NW,324,2.0,15.0,48,0.00,,,0.00,weatherlink.com 1.10,2013-02-20 22:07:00,
2013-02-20 17:22:00,30.8,13.0,29.69,WNW,299,2.0,17.0,48,0.00,,,0.00,weatherlink.com 1.10,2013-02-20 22:22:00,
2013-02-20 17:37:00,30.6,14.0,29.70,West,264,1.0,12.0,50,0.00,,,0.00,weatherlink.com 1.10,2013-02-20 22:37:00,
2013-02-20 17:53:00,30.3,14.0,29.70,WSW,244,4.0,9.0,51,0.00,,,0.00,weatherlink.com 1.10,2013-02-20 22:53:00,
2013-02-20 18:07:00,30.2,13.0,29.71,West,260,3.0,12.0,49,0.00,,,0.00,weatherlink.com 1.10,2013-02-20 23:07:00,
2013-02-20 18:22:00,30.0,13.0,29.71,West,267,3.0,12.0,50,0.00,,,0.00,weatherlink.com 1.10,2013-02-20 23:22:00,
2013-02-20 18:38:00,29.8,13.0,29.72,WNW,286,2.0,10.0,49,0.00,,,0.00,weatherlink.com 1.10,2013-02-20 23:38:00,
2013-02-20 18:53:00,29.6,12.0,29.72,WSW,243,9.0,10.0,49,0.00,,,0.00,weatherlink.com 1.10,2013-02-20 23:53:00,
2013-02-20 19:07:00,29.4,13.0,29.72,SW,217,1.0,14.0,50,0.00,,,0.00,weatherlink.com 1.10,2013-02-21 00:07:00,
2013-02-20 19:23:00,29.2,12.0,29.73,West,261,2.0,10.0,49,0.00,,,0.00,weatherlink.com 1.10,2013-02-21 00:23:00,
2013-02-20 19:38:00,29.0,12.0,29.73,WNW,293,1.0,9.0,49,0.00,,,0.00,weatherlink.com 1.10,2013-02-21 00:38:00,
2013-02-20 19:53:00,28.9,12.0,29.73,WSW,240,2.0,14.0,50,0.00,,,0.00,weatherlink.com 1.10,2013-02-21 00:53:00,
2013-02-20 20:08:00,28.7,13.0,29.74,NW,308,1.0,16.0,51,0.00,,,0.00,weatherlink.com 1.10,2013-02-21 01:08:00,
2013-02-20 20:23:00,28.4,13.0,29.74,West,271,4.0,12.0,52,0.00,,,0.00,weatherlink.com 1.10,2013-02-21 01:23:00,
2013-02-20 20:38:00,28.3,13.0,29.75,WNW,295,2.0,9.0,52,0.00,,,0.00,weatherlink.com 1.10,2013-02-21 01:38:00,
2013-02-20 20:53:00,28.1,12.0,29.75,WSW,240,2.0,13.0,52,0.00,,,0.00,weatherlink.com 1.10,2013-02-21 01:53:00,
2013-02-20 21:08:00,27.9,12.0,29.75,West,267,6.0,18.0,52,0.00,,,0.00,weatherlink.com 1.10,2013-02-21 02:08:00,
2013-02-20 21:23:00,27.8,13.0,29.76,WNW,287,1.0,14.0,53,0.00,,,0.00,weatherlink.com 1.10,2013-02-21 02:23:00,
2013-02-20 21:38:00,27.5,13.0,29.76,SW,236,2.0,8.0,54,0.00,,,0.00,weatherlink.com 1.10,2013-02-21 02:38:00,
2013-02-20 21:53:00,27.4,13.0,29.76,West,278,7.0,12.0,55,0.00,,,0.00,weatherlink.com 1.10,2013-02-21 02:53:00,
2013-02-20 22:08:00,27.3,13.0,29.77,West,277,4.0,10.0,56,0.00,,,0.00,weatherlink.com 1.10,2013-02-21 03:08:00,
2013-02-20 22:23:00,27.0,13.0,29.77,WSW,247,10.0,12.0,57,0.00,,,0.00,weatherlink.com 1.10,2013-02-21 03:23:00,
2013-02-20 22:38:00,26.9,14.0,29.77,NW,312,0.0,9.0,58,0.00,,,0.00,weatherlink.com 1.10,2013-02-21 03:38:00,
2013-02-20 22:53:00,26.9,14.0,29.77,West,270,10.0,18.0,58,0.00,,,0.00,weatherlink.com 1.10,2013-02-21 03:53:00,
2013-02-20 23:08:00,26.7,14.0,29.78,West,264,2.0,8.0,58,0.00,,,0.00,weatherlink.com 1.10,2013-02-21 04:08:00,
2013-02-20 23:23:00,26.7,14.0,29.78,West,265,6.0,10.0,59,0.00,,,0.00,weatherlink.com 1.10,2013-02-21 04:23:00,
2013-02-20 23:38:00,26.8,14.0,29.78,NW,324,6.0,7.0,59,0.00,,,0.00,weatherlink.com 1.10,2013-02-21 04:38:00,
2013-02-20 23:53:00,26.8,14.0,29.78,West,278,3.0,10.0,60,0.00,,,0.00,weatherlink.com 1.10,2013-02-21 04:53:00,